Charles City, IA

9:45 PM CDT on August 23, 2016 (GMT -0500)
Charles City Municipal

Weather History for KCCY - January, 2014

Change the Weather History Date:

Saturday, January 18, 2014

  Actual Average Record
Temperature  
Mean Temperature 12 °F -  
Max Temperature 19 °F 23 °F 49 °F (1981)
Min Temperature 5 °F 6 °F -31 °F (1967)
Degree Days  
Heating Degree Days 53    
Moisture  
Dew Point 9 °F    
Average Humidity 81    
Maximum Humidity 86    
Minimum Humidity 73    
Precipitation  
Precipitation 0.00 in - - ()
Sea Level Pressure  
Sea Level Pressure 29.74 in    
Wind  
Wind Speed 13 mph (ESE)    
Max Wind Speed 26 mph    
Max Gust Speed 32 mph    
Visibility 7 miles    
Events Snow    
Averages and records for this station are not official NWS values.
T = Trace of Precipitation, MM = Missing Value Source: NWS Daily Summary

Daily Weather History Graph

Daily Weather History Graph

Search for Another Location

Airport or City:

Trip Planner

Search our weather history database for the weather conditions in past years. The results will help you decide how hot, cold, wet, or windy it might be!

Date:

Astronomy

Jan. 18, 2014 Rise Set
Actual Time 7:37 AM CST 5:04 PM CST
Civil Twilight 7:06 AM CST 5:36 PM CST
Nautical Twilight 6:31 AM CST 6:10 PM CST
Astronomical Twilight 5:57 AM CST 6:44 PM CST
Moon 7:52 PM CST (1/18) 8:32 AM CST (1/18)
Length of Visible Light 10h 29m
Length of Day
9h 27m
Waning Gibbous, 94% of the Moon is Illuminated
Jan 18
Waning Gibbous
Jan 23
Last Quarter
Jan 30
New
Feb 6
First Quarter
Feb 14
Full

Hourly Weather History & Observations

Time (CST) Temp. Windchill Dew Point Humidity Pressure Visibility Wind Dir Wind Speed Gust Speed Precip Events Conditions
12:15 AM 5.0 °F -8.1 °F 1.4 °F 85% 29.84 in 10.0 mi SSE 8.1 mph - N/A   Overcast
12:35 AM 6.8 °F -6.9 °F 1.4 °F 79% 29.82 in 10.0 mi SE 9.2 mph - N/A   Overcast
12:55 AM 8.6 °F -5.5 °F 3.2 °F 79% 29.80 in 10.0 mi SSE 10.4 mph - N/A   Overcast
1:15 AM 8.6 °F -6.3 °F 5.0 °F 85% 29.79 in 10.0 mi SSE 11.5 mph - N/A   Overcast
1:35 AM 8.6 °F -7.0 °F 3.2 °F 79% 29.78 in 10.0 mi SSE 12.7 mph - N/A   Overcast
1:55 AM 10.4 °F -4.1 °F 3.2 °F 73% 29.77 in 10.0 mi SE 11.5 mph - N/A   Overcast
2:15 AM 10.4 °F -4.1 °F 5.0 °F 79% 29.76 in 10.0 mi SE 11.5 mph - N/A   Overcast
2:35 AM 10.4 °F -4.8 °F 5.0 °F 79% 29.75 in 10.0 mi SE 12.7 mph - N/A   Overcast
2:55 AM 10.4 °F -4.1 °F 5.0 °F 79% 29.73 in 10.0 mi SSE 11.5 mph - N/A   Overcast
3:15 AM 12.2 °F -3.1 °F 5.0 °F 73% 29.71 in 10.0 mi SE 13.8 mph - N/A   Overcast
3:35 AM 12.2 °F -3.7 °F 5.0 °F 73% 29.69 in 3.0 mi SE 15.0 mph - N/A Snow Light Snow
3:55 AM 12.2 °F -3.1 °F 6.8 °F 79% 29.67 in 1.8 mi SSE 13.8 mph 21.9 mph N/A Snow Light Snow
4:15 AM 12.2 °F -4.8 °F 8.6 °F 85% 29.65 in 0.5 mi SE 17.3 mph - N/A Snow Light Snow
4:35 AM 14.0 °F -3.9 °F 8.6 °F 79% 29.62 in 0.8 mi SE 20.7 mph - N/A Snow Light Snow
4:55 AM 14.0 °F -4.7 °F 10.4 °F 86% 29.58 in 1.0 mi SE 23.0 mph - N/A Snow Light Snow
5:15 AM 14.0 °F -4.7 °F 10.4 °F 86% 29.56 in 2.0 mi SE 23.0 mph 31.1 mph N/A Snow Light Snow
5:35 AM 15.8 °F -3.4 °F 12.2 °F 86% 29.54 in 2.0 mi SE 26.5 mph - N/A Snow Light Snow
5:55 AM 15.8 °F -0.6 °F 12.2 °F 86% 29.55 in 2.0 mi SSE 18.4 mph 32.2 mph N/A   Haze
6:15 AM 15.8 °F -0.6 °F 12.2 °F 86% 29.55 in 0.8 mi SSE 18.4 mph - N/A Snow Light Snow
6:35 AM 15.8 °F -0.2 °F 12.2 °F 86% 29.53 in 1.2 mi SE 17.3 mph - N/A Snow Light Snow
6:55 AM 15.8 °F -0.6 °F 12.2 °F 86% 29.53 in 1.0 mi SE 18.4 mph 27.6 mph N/A Snow Light Snow
7:15 AM 15.8 °F -0.6 °F 12.2 °F 86% 29.52 in 0.2 mi SE 18.4 mph - N/A Snow Light Snow
7:35 AM 15.8 °F 0.9 °F 12.2 °F 86% 29.52 in 0.2 mi SSE 15.0 mph 25.3 mph N/A Snow Light Snow
7:55 AM 15.8 °F 0.3 °F 12.2 °F 86% 29.52 in 0.2 mi SE 16.1 mph 23.0 mph N/A Snow Light Snow
8:15 AM 15.8 °F -1.1 °F 12.2 °F 86% 29.51 in 0.5 mi SE 19.6 mph - N/A Snow Light Snow
8:35 AM 17.6 °F 1.7 °F 12.2 °F 79% 29.52 in 0.5 mi SE 18.4 mph - N/A Snow Light Snow
8:55 AM 17.6 °F 2.7 °F 14.0 °F 86% 29.53 in 0.5 mi SE 16.1 mph 23.0 mph N/A Snow Light Snow
9:15 AM 17.6 °F 3.2 °F 14.0 °F 86% 29.54 in 1.5 mi SE 15.0 mph - N/A Snow Light Snow
9:35 AM 17.6 °F 2.2 °F 14.0 °F 86% 29.54 in 1.2 mi ESE 17.3 mph 23.0 mph N/A Snow Light Snow
9:55 AM 17.6 °F 3.7 °F 14.0 °F 86% 29.56 in 1.0 mi ESE 13.8 mph 20.7 mph N/A Snow Light Snow
10:15 AM 17.6 °F 3.2 °F 14.0 °F 86% 29.57 in 1.5 mi ESE 15.0 mph - N/A Snow Light Snow
10:35 AM 17.6 °F 2.7 °F 14.0 °F 86% 29.58 in 1.8 mi East 16.1 mph - N/A Snow Light Snow
10:55 AM 17.6 °F 3.7 °F 14.0 °F 86% 29.59 in 6.0 mi East 13.8 mph - N/A   Haze
11:15 AM 17.6 °F 1.7 °F 14.0 °F 86% 29.59 in 10.0 mi East 18.4 mph - N/A   Overcast
11:35 AM 19.4 °F 4.1 °F 14.0 °F 80% 29.61 in 10.0 mi East 18.4 mph - N/A   Overcast
11:55 AM 19.4 °F 5.5 °F 14.0 °F 80% 29.62 in 10.0 mi East 15.0 mph - N/A   Overcast
12:15 PM 17.6 °F 2.7 °F 12.2 °F 79% 29.64 in 9.0 mi ENE 16.1 mph - N/A   Overcast
12:35 PM 17.6 °F 2.2 °F 12.2 °F 79% 29.66 in 10.0 mi ENE 17.3 mph - N/A   Overcast
12:55 PM 17.6 °F 2.2 °F 12.2 °F 79% 29.67 in 10.0 mi NE 17.3 mph - N/A   Overcast
1:15 PM 17.6 °F 3.2 °F 12.2 °F 79% 29.69 in 10.0 mi NE 15.0 mph - N/A   Overcast
1:35 PM 17.6 °F 2.2 °F 12.2 °F 79% 29.71 in 9.0 mi NE 17.3 mph 23.0 mph N/A   Overcast
1:55 PM 17.6 °F 1.7 °F 10.4 °F 73% 29.73 in 9.0 mi NE 18.4 mph - N/A   Overcast
2:15 PM 17.6 °F 2.7 °F 10.4 °F 73% 29.76 in 9.0 mi NNE 16.1 mph - N/A   Mostly Cloudy
2:35 PM 17.6 °F 3.2 °F 10.4 °F 73% 29.77 in 10.0 mi NNE 15.0 mph 23.0 mph N/A   Partly Cloudy
2:55 PM 17.6 °F 3.2 °F 10.4 °F 73% 29.80 in 10.0 mi NNE 15.0 mph - N/A   Clear
3:15 PM 17.6 °F 5.0 °F 10.4 °F 73% 29.81 in 10.0 mi NNE 11.5 mph - N/A   Clear
3:35 PM 17.6 °F 4.3 °F 10.4 °F 73% 29.83 in 10.0 mi North 12.7 mph - N/A   Scattered Clouds
3:55 PM 17.6 °F 3.2 °F 10.4 °F 73% 29.84 in 10.0 mi North 15.0 mph - N/A   Partly Cloudy
4:15 PM 17.6 °F 5.0 °F 10.4 °F 73% 29.87 in 10.0 mi North 11.5 mph - N/A   Clear
4:35 PM 15.8 °F 2.7 °F 10.4 °F 79% 29.88 in 10.0 mi North 11.5 mph - N/A   Clear
4:55 PM 15.8 °F 3.4 °F 8.6 °F 73% 29.89 in 10.0 mi North 10.4 mph - N/A   Scattered Clouds
5:15 PM 14.0 °F 0.5 °F 8.6 °F 79% 29.91 in 10.0 mi NNW 11.5 mph - N/A   Partly Cloudy
5:35 PM 14.0 °F 0.5 °F 8.6 °F 79% 29.93 in 10.0 mi NNW 11.5 mph - N/A   Clear
5:55 PM 12.2 °F -2.5 °F 6.8 °F 79% 29.95 in 10.0 mi NW 12.7 mph - N/A   Clear
6:15 PM 12.2 °F -3.1 °F 6.8 °F 79% 29.96 in 10.0 mi NW 13.8 mph - N/A   Clear
6:35 PM 12.2 °F -0.2 °F 6.8 °F 79% 29.96 in 10.0 mi NW 9.2 mph - N/A   Clear
6:55 PM 10.4 °F -4.1 °F 5.0 °F 79% 29.96 in 10.0 mi NW 11.5 mph - N/A   Clear
7:15 PM 12.2 °F -3.1 °F 6.8 °F 79% 29.95 in 10.0 mi NW 13.8 mph - N/A   Clear
7:35 PM 10.4 °F -2.4 °F 5.0 °F 79% 29.94 in 10.0 mi NW 9.2 mph - N/A   Clear
7:55 PM 10.4 °F 0.8 °F 5.0 °F 79% 29.94 in 10.0 mi WNW 5.8 mph - N/A   Clear
8:15 PM 8.6 °F -1.3 °F 5.0 °F 85% 29.94 in 10.0 mi WNW 5.8 mph - N/A   Clear
8:35 PM 6.8 °F -5.9 °F 3.2 °F 85% 29.94 in 10.0 mi West 8.1 mph - N/A   Clear
8:55 PM 6.8 °F -2.0 °F 3.2 °F 85% 29.93 in 10.0 mi West 4.6 mph - N/A   Clear
9:15 PM 8.6 °F -3.7 °F 3.2 °F 79% 29.93 in 10.0 mi West 8.1 mph - N/A   Clear
9:35 PM 6.8 °F -5.9 °F 3.2 °F 85% 29.93 in 10.0 mi West 8.1 mph - N/A   Partly Cloudy
9:55 PM 8.6 °F -3.7 °F 5.0 °F 85% 29.92 in 10.0 mi West 8.1 mph - N/A   Mostly Cloudy
10:15 PM 10.4 °F -3.3 °F 5.0 °F 79% 29.92 in 10.0 mi West 10.4 mph - N/A   Overcast
10:35 PM 10.4 °F -3.3 °F 6.8 °F 85% 29.90 in 10.0 mi WSW 10.4 mph - N/A   Overcast
10:55 PM 12.2 °F -1.0 °F 8.6 °F 85% 29.90 in 10.0 mi West 10.4 mph - N/A   Mostly Cloudy
11:15 PM 12.2 °F -1.0 °F 6.8 °F 79% 29.89 in 10.0 mi WSW 10.4 mph - N/A   Mostly Cloudy
11:35 PM 12.2 °F 0.7 °F 6.8 °F 79% 29.87 in 10.0 mi WSW 8.1 mph - N/A   Overcast
11:55 PM 14.0 °F 1.2 °F 8.6 °F 79% 29.86 in 10.0 mi WSW 10.4 mph - N/A   Overcast